ATLAS 5 CENTAUR DEB, 44895

Orbit data source: Space-Track

ATLAS 5 CENTAUR DEB, 44895 is space debris in HEO originally from a launch on Wed, 17 Oct 2018 UTC launched from the Air Force Eastern Test Range (AFETR). Debris objects in space refer to the collection of defunct objects orbiting the Earth. Examples of debris include non-operational satellites, rocket bodies, and fragments generated from explosions, collisions, or faulty payload assembly.

Loading next visibility...
Identifier
44895, 2018-079BJ
Orbit
HEO
Country
Flag of USUS
Related business
Flag of USUnited Launch Alliance/Lockheed Martin (US)
Manufacturer
ULA Decatur
Mission
Spacecraft
Bus & Motor
Unknown
Mass
Unknown
Launch date (UTC)
2018-10-17 (7 years ago)
Launch vehicle
Unknown
Launch site
Air Force Eastern Test Range (AFETR)
Object type
Payload
Rocket body
Debris
Shape & HBR
Unknown shape, 1.1 m
Radar Cross Section
RCS unknown

Expand to show TLE details & history
Last TLE update: 5 days ago

TLE from 5 days ago
0 ATLAS 5 CENTAUR DEB
1 44895U 18079BJ  25283.31362631 -.00000110  00000-0  00000-0 0  9993
2 44895  12.7933  61.2383 4299985 266.8915  44.7400  1.87728392 41622
Epoch: 2025-10-10T07:31Z
TLE epoch observation values (Epoch: 2025-10-10T07:31:37.313Z)
Latitude
-0.00002°
Longitude
-70.8585°
Altitude
16,765.324 km
Speed
4.482 km/s
True Right ascension
04h 04m 49s
True Declination
0° 00' 00"
Sunlit
Object was in daylight at epoch
Visualization orbit readout
Latitude
Unknown
Longitude
Unknown
Altitude
Unknown
Speed
Unknown
Apparent Right ascension
Unknown
Apparent Declination
Unknown
Sunlit
N/A
Visualization observer readout
Local Sidereal Time
08:13:05
Azimuth
Unknown
Elevation
Unknown
Doppler factor
Unknown
Orbital elements
Apogee altitude
33,318.066 km
Perigee altitude
9,444.883 km
Semi-major axis
27,759.612 km
Eccentricity
0.43
Inclination
12.7933°
RAAN
61.2383°
Arg. of periapsis
266.8915°
True anomaly
93.24887°
Mean anomaly
44.74°
Eccentric anomaly
67.50205°
Mean motion
0.46927 °/min
Orbital period
767.15 mins
BSTAR
0
Loading maneuver chart data...
Computing Atmospheric mass density...

Documentation

Showing up to 5 results
|